Location: Gull Harbor
(47.1000°N, 122.9000°W)
Time: 17:04:09
(UTC-08:00)

Envisat - Pass Details

Date: 25 October 2019
Orbit: 764 x 766 km, 98.1° (Epoch: 19 November)

Event Time Altitude Azimuth Distance (km) Brightness Sun altitude
Rises 19:04:50 0° 164° (SSE) 3,220 6.1 -10.5°
Reaches altitude 10° 19:07:07 10° 164° (SSE) 2,298 5.4 -10.9°
Maximum altitude 19:12:12 88° 74° (ENE) 773 3.0 -11.8°
Drops below altitude 10° 19:17:19 10° 347° (NNW) 2,314 5.6 -12.6°
Sets 19:19:38 0° 347° (NNW) 3,245 6.4 -13.0°
